TimeCST,TemperatureF,Dew PointF,Humidity,Sea Level PressureIn,VisibilityMPH,Wind Direction,Wind SpeedMPH,Gust SpeedMPH,PrecipitationIn,Events,Conditions,WindDirDegrees,DateUTC
12:15 AM,41.0,37.4,87,30.35,10.0,Calm,Calm,-,N/A,,Clear,0,2012-11-16 06:15:00
12:35 AM,41.0,35.6,81,30.36,10.0,SSW,3.5,-,N/A,,Clear,210,2012-11-16 06:35:00
12:55 AM,39.2,35.6,87,30.36,10.0,Calm,Calm,-,N/A,,Clear,0,2012-11-16 06:55:00
1:15 AM,41.0,35.6,81,30.36,10.0,SW,3.5,-,N/A,,Clear,230,2012-11-16 07:15:00
1:35 AM,42.8,35.6,76,30.36,10.0,SW,4.6,-,N/A,,Clear,220,2012-11-16 07:35:00
1:55 AM,44.6,35.6,71,30.36,10.0,Calm,Calm,-,N/A,,Clear,0,2012-11-16 07:55:00
2:15 AM,41.0,33.8,76,30.36,10.0,SSW,3.5,-,N/A,,Clear,210,2012-11-16 08:15:00
2:35 AM,37.4,32.0,81,30.36,10.0,Calm,Calm,-,N/A,,Clear,0,2012-11-16 08:35:00
2:55 AM,41.0,33.8,76,30.36,10.0,Calm,Calm,-,N/A,,Clear,0,2012-11-16 08:55:00
3:15 AM,35.6,32.0,87,30.37,10.0,ENE,3.5,-,N/A,,Clear,70,2012-11-16 09:15:00
3:35 AM,35.6,33.8,93,30.37,10.0,Calm,Calm,-,N/A,,Clear,0,2012-11-16 09:35:00
3:55 AM,35.6,32.0,87,30.38,10.0,NW,3.5,-,N/A,,Clear,320,2012-11-16 09:55:00
4:15 AM,35.6,32.0,87,30.38,10.0,NW,3.5,-,N/A,,Clear,320,2012-11-16 10:15:00
4:35 AM,35.6,32.0,87,30.38,10.0,NNW,3.5,-,N/A,,Clear,340,2012-11-16 10:35:00
4:55 AM,33.8,32.0,93,30.38,10.0,Calm,Calm,-,N/A,,Clear,0,2012-11-16 10:55:00
5:15 AM,35.6,33.8,93,30.38,10.0,Calm,Calm,-,N/A,,Scattered Clouds,0,2012-11-16 11:15:00
5:35 AM,35.6,33.8,93,30.39,10.0,Calm,Calm,-,N/A,,Scattered Clouds,0,2012-11-16 11:35:00
5:55 AM,37.4,33.8,87,30.39,10.0,Calm,Calm,-,N/A,,Overcast,0,2012-11-16 11:55:00
6:15 AM,37.4,35.6,93,30.39,10.0,Calm,Calm,-,N/A,,Overcast,0,2012-11-16 12:15:00
6:35 AM,37.4,35.6,93,30.40,10.0,Calm,Calm,-,N/A,,Mostly Cloudy,0,2012-11-16 12:35:00
6:55 AM,37.4,35.6,93,30.40,10.0,Calm,Calm,-,N/A,,Mostly Cloudy,0,2012-11-16 12:55:00
7:15 AM,35.6,33.8,93,30.39,10.0,Calm,Calm,-,N/A,,Mostly Cloudy,0,2012-11-16 13:15:00
7:35 AM,35.6,33.8,93,30.40,10.0,Calm,Calm,-,N/A,,Scattered Clouds,0,2012-11-16 13:35:00
7:55 AM,35.6,33.8,93,30.40,10.0,Calm,Calm,-,N/A,,Clear,0,2012-11-16 13:55:00
8:15 AM,35.6,33.8,93,30.41,10.0,Calm,Calm,-,N/A,,Clear,0,2012-11-16 14:15:00
8:35 AM,37.4,35.6,93,30.41,10.0,Calm,Calm,-,N/A,,Clear,0,2012-11-16 14:35:00
8:55 AM,41.0,37.4,87,30.41,10.0,Calm,Calm,-,N/A,,Clear,0,2012-11-16 14:55:00
9:15 AM,42.8,37.4,81,30.41,10.0,Calm,Calm,-,N/A,,Clear,0,2012-11-16 15:15:00
9:35 AM,46.4,37.4,71,30.41,10.0,SE,3.5,-,N/A,,Clear,130,2012-11-16 15:35:00
9:55 AM,48.2,37.4,66,30.41,10.0,Calm,Calm,-,N/A,,Clear,0,2012-11-16 15:55:00
10:15 AM,50.0,35.6,58,30.41,10.0,Calm,Calm,-,N/A,,Clear,0,2012-11-16 16:15:00
10:35 AM,53.6,35.6,51,30.41,10.0,SE,3.5,-,N/A,,Clear,130,2012-11-16 16:35:00
10:55 AM,53.6,35.6,51,30.41,10.0,SSE,5.8,-,N/A,,Clear,150,2012-11-16 16:55:00
11:15 AM,55.4,33.8,44,30.41,10.0,ESE,4.6,-,N/A,,Clear,110,2012-11-16 17:15:00
11:35 AM,57.2,35.6,44,30.41,10.0,ESE,5.8,-,N/A,,Clear,110,2012-11-16 17:35:00
11:55 AM,59.0,33.8,39,30.41,10.0,SSE,3.5,-,N/A,,Clear,160,2012-11-16 17:55:00
12:15 PM,59.0,33.8,39,30.40,10.0,SE,6.9,-,N/A,,Clear,140,2012-11-16 18:15:00
12:35 PM,59.0,33.8,39,30.39,10.0,SE,9.2,-,N/A,,Clear,140,2012-11-16 18:35:00
12:55 PM,60.8,33.8,36,30.37,10.0,South,5.8,-,N/A,,Clear,170,2012-11-16 18:55:00
1:15 PM,60.8,35.6,39,30.37,10.0,SSE,3.5,-,N/A,,Clear,150,2012-11-16 19:15:00
1:35 PM,60.8,33.8,36,30.36,10.0,South,9.2,-,N/A,,Clear,180,2012-11-16 19:35:00
1:55 PM,60.8,35.6,39,30.35,10.0,South,9.2,-,N/A,,Clear,180,2012-11-16 19:55:00
2:15 PM,60.8,35.6,39,30.35,10.0,South,8.1,-,N/A,,Clear,170,2012-11-16 20:15:00
2:35 PM,60.8,33.8,36,30.34,10.0,SSE,8.1,-,N/A,,Clear,160,2012-11-16 20:35:00
2:55 PM,60.8,35.6,39,30.33,10.0,South,8.1,-,N/A,,Clear,170,2012-11-16 20:55:00
3:15 PM,60.8,35.6,39,30.33,10.0,SE,5.8,-,N/A,,Clear,130,2012-11-16 21:15:00
3:35 PM,60.8,35.6,39,30.33,10.0,SSE,8.1,-,N/A,,Clear,150,2012-11-16 21:35:00
3:55 PM,60.8,33.8,36,30.33,10.0,SSE,11.5,-,N/A,,Clear,150,2012-11-16 21:55:00
4:15 PM,60.8,33.8,36,30.32,10.0,South,4.6,-,N/A,,Clear,170,2012-11-16 22:15:00
4:35 PM,60.8,33.8,36,30.32,10.0,SSE,8.1,-,N/A,,Clear,150,2012-11-16 22:35:00
4:55 PM,59.0,33.8,39,30.32,10.0,SSE,8.1,-,N/A,,Clear,160,2012-11-16 22:55:00
5:15 PM,59.0,33.8,39,30.32,10.0,SSE,4.6,-,N/A,,Clear,160,2012-11-16 23:15:00
5:35 PM,55.4,33.8,44,30.32,10.0,SSE,4.6,-,N/A,,Clear,150,2012-11-16 23:35:00
5:55 PM,55.4,33.8,44,30.31,10.0,SSE,3.5,-,N/A,,Clear,160,2012-11-16 23:55:00
6:15 PM,53.6,33.8,47,30.31,10.0,SSE,3.5,-,N/A,,Clear,160,2012-11-17 00:15:00
6:35 PM,51.8,33.8,50,30.32,10.0,South,4.6,-,N/A,,Clear,170,2012-11-17 00:35:00
6:55 PM,51.8,33.8,50,30.32,10.0,SSE,4.6,-,N/A,,Clear,160,2012-11-17 00:55:00
7:15 PM,50.0,33.8,54,30.33,10.0,South,4.6,-,N/A,,Clear,170,2012-11-17 01:15:00
7:35 PM,50.0,33.8,54,30.33,10.0,South,4.6,-,N/A,,Clear,170,2012-11-17 01:35:00
8:15 PM,46.4,33.8,62,30.33,10.0,SSE,3.5,-,N/A,,Clear,160,2012-11-17 02:15:00
8:35 PM,46.4,33.8,62,30.33,10.0,SSE,3.5,-,N/A,,Clear,160,2012-11-17 02:35:00
8:55 PM,46.4,33.8,62,30.33,10.0,South,4.6,-,N/A,,Clear,180,2012-11-17 02:55:00
9:15 PM,44.6,33.8,66,30.33,10.0,South,4.6,-,N/A,,Clear,180,2012-11-17 03:15:00
9:35 PM,46.4,33.8,62,30.33,10.0,South,4.6,-,N/A,,Clear,170,2012-11-17 03:35:00
9:55 PM,46.4,33.8,62,30.34,10.0,South,5.8,-,N/A,,Clear,170,2012-11-17 03:55:00
10:15 PM,46.4,33.8,62,30.33,10.0,South,6.9,-,N/A,,Clear,170,2012-11-17 04:15:00
10:35 PM,46.4,32.0,57,30.33,10.0,South,6.9,-,N/A,,Clear,170,2012-11-17 04:35:00
10:55 PM,44.6,32.0,61,30.33,10.0,South,5.8,-,N/A,,Clear,170,2012-11-17 04:55:00
11:15 PM,44.6,32.0,61,30.33,10.0,South,4.6,-,N/A,,Clear,170,2012-11-17 05:15:00
11:35 PM,44.6,33.8,66,30.33,10.0,South,3.5,-,N/A,,Clear,170,2012-11-17 05:35:00
11:55 PM,44.6,33.8,66,30.33,10.0,South,3.5,-,N/A,,Clear,170,2012-11-17 05:55:00